Volver al catálogo

SL-12 DEB

LostHEO
NORAD 43543·DEBRIS·🇷🇺 Russia

Lanzado Mar 1, 2010 desde Baikonur Cosmodrome

Loading…

Próximos Pases (próximas 24 horas)

TLE

ObsoletoSource: Space-Track

Época: Aug 6, 2018, 18:51 UTC

1 43543U 10007AC  18218.78603953 -.00002964 +00000-0 -73475-2 0  9999
2 43543 066.0042 152.0259 5760804 041.7415 345.2026 04.19578599002860

Sigue SL-12 DEB en tiempo real con AllMySat

Download on the App Store